Kosmos-272

operational
NORAD ID: 3818 Int'l Des: 1969-024 Owner: OKB10 Country: SU
LEOCIRCULAR

About Kosmos-272

Description loading...

Live Position

Loading 3D Globe...

Upcoming Passes

Altitude History

Altitude vs Time

uPlot chart will show altitude changes over time

Two-Line Element Set

1 03818U 69024A 26102.97334329 -.00000093 00000-0 -18741-3 0 9990
2 03818 73.9938 354.6543 0019511 204.1697 167.0240 13.17948283745267
Epoch: Apr 12, 2026 • Age: 6 hours

Current Status

Altitude 1213.5 km
Velocity 7.25 km/s
Sub-Earth Point 56.52°N, 102.36°E
Type other

Large Constellations

Loading constellations...